Location: Lecco
(45.8566°N, 9.3977°E)
Time: 01:30:41
(UTC+02:00)

Explorer 11/Cluster Stage 4 - Visible Passes

Search period start: 20 July 2019 00:00
Search period end: 30 July 2019 00:00
Orbit: 467 x 1260 km, 28.8° (Epoch: 18 July)

Date Brightness Start Highest point End Pass type
(mag) Time Alt. Az. Time Alt. Az. Time Alt. Az.
20 Jul 9.0 03:00:22 15° SSE 03:00:22 15° SSE 03:03:31 10° SE visible
20 Jul 8.7 04:42:29 12° SW 04:47:21 22° S 04:53:14 10° SE visible
21 Jul 9.0 02:50:14 14° SSE 02:50:14 14° SSE 02:52:43 10° SE visible
21 Jul 8.6 04:32:23 14° SW 04:36:25 22° S 04:42:13 10° SE visible
22 Jul 9.0 02:40:12 13° SE 02:40:12 13° SE 02:41:51 10° SE visible
22 Jul 8.6 04:22:21 16° SSW 04:25:30 21° S 04:31:10 10° SE visible
23 Jul 9.2 02:30:16 11° SE 02:30:16 11° SE 02:30:55 10° SE visible
23 Jul 8.5 04:12:25 18° SSW 04:14:36 20° S 04:20:03 10° SE visible
24 Jul 8.5 04:02:38 19° SSW 04:03:43 19° S 04:08:52 10° SE visible
25 Jul 8.5 03:53:01 18° S 03:53:01 18° S 03:57:39 10° SE visible
26 Jul 8.7 03:43:35 15° S 03:43:35 15° S 03:46:20 10° SSE visible
27 Jul 9.0 03:34:21 11° SSE 03:34:21 11° SSE 03:34:56 10° SSE visible
